Flag for Cuba Weather past 2 weeks in Santa Clara, Cuba

Now
77 °F

Warm.


Feels Like: 78 °F
Forecast: 74 / 89 °F
Wind: 9 mph from South

Location: Cienfuegos - Las Villas

Current Time: Aug 30, 2015 at 4:31:58 AM

Latest Report: Aug 30, 2015 at 3:59 AM


Visibility: N/A

Pressure: 29.92 "Hg

Humidity: 94%

Dew point: 75 °F

Location of Santa ClaraLocation

Historic Weather in Santa Clara — Graph

°F

Santa Clara temperature yesterday

Maximum temperature yesterday: 93 °F (at 12:59 PM)
Minimum temperature yesterday: 75 °F (at 10:59 PM)
Average temperature yesterday: 81 °F

Past Weeks' High & Low Weather Summary

 TemperatureHumidityPressure
High95 °F (Aug 27, 3:50 PM)100% (Aug 15, 6:59 AM)30.04 "Hg (Aug 15, 6:59 AM)
Low72 °F (Aug 15, 6:59 AM)41% (Aug 22, 12:59 PM)29.86 "Hg (Aug 29, 4:59 PM)
Average82 °F81%29.97 "Hg
* Reported Aug 15 2:59 AM — Aug 30 2:59 AM, Santa Clara, Weather by CustomWeather, © 2015

Note: Actual official high and low records may vary slightly from our data, if they occured in-between our weather recording intervals... More about our weather records

Advertising

Santa Clara weather history for previous 24 hours

 ConditionsComfort  
Time TempWeatherWind HumidityBarometerVisibility
2:59 AM
Sun, Aug 30
75 °FMild.6 mph100%29.95 "HgN/A
1:59 AM75 °FMild.6 mph94%29.92 "HgN/A
12:59 AM75 °FMild.3 mph94%29.95 "HgN/A
11:59 PM
Sat, Aug 29
75 °FMild.5 mph100%29.92 "HgN/A
10:59 PM75 °FMild.3 mph100%29.92 "HgN/A
9:59 PM77 °FWarm.3 mph100%29.92 "HgN/A
8:59 PM77 °FWarm.3 mph100%29.89 "HgN/A
7:59 PM77 °FWarm.1 mph94%29.92 "HgN/A
6:59 PM77 °FWarm.6 mph100%29.89 "HgN/A
5:59 PM81 °FWarm.5 mph94%29.89 "HgN/A
4:59 PM77 °FWarm.3 mph94%29.86 "HgN/A
3:59 PM86 °FWarm.8 mph84%29.89 "HgN/A
2:59 PM93 °FExtremely hot.7 mph67%29.89 "HgN/A
1:59 PM88 °FWarm.10 mph75%29.92 "HgN/A
12:59 PM93 °FExtremely hot.8 mph59%29.95 "HgN/A
11:59 AM90 °FHot.8 mph67%29.95 "HgN/A
10:59 AM88 °FWarm.8 mph75%29.98 "HgN/A
9:59 AM86 °FWarm.8 mph79%29.95 "HgN/A
8:59 AM82 °FWarm.6 mph84%29.95 "HgN/A
7:59 AM79 °FWarm.6 mph94%29.95 "HgN/A
6:59 AM77 °FWarm.2 mph94%29.95 "HgN/A
5:59 AM77 °FWarm.3 mph94%29.92 "HgN/A
4:59 AM77 °FWarm.6 mph94%29.95 "HgN/A
Weather by CustomWeather, © 2015

See weather overviewHow to use our weather pages